AO-07 1 07530U 74089B 15330.16173765 -.00000045 00000-0 -60989-5 0 9999 2 07530 101.5448 301.1441 0012082 349.4175 76.0781 12.53618063877556 FO-29 1 24278U 96046B 15330.08105639 -.00000020 00000-0 15509-4 0 9999 2 24278 98.5657 277.1462 0350688 11.3735 349.5077 13.53060601951919 SO-33 1 25509U 98061B 15330.52660596 .00000214 00000-0 31738-4 0 9999 2 25509 31.4323 50.9456 0347479 56.8161 306.5293 14.30097884892673 RS-22 1 27939U 03042A 15330.84726840 .00000564 00000-0 11073-3 0 9990 2 27939 97.8572 125.7163 0012268 228.1732 131.8422 14.66233750650020 HO-68 1 36122U 09072B 15330.81960585 -.00000059 00000-0 -43517-4 0 9996 2 36122 100.1739 9.6726 0008083 104.5766 255.6241 13.16330859285857 AO-73 1 39444U 13066AE 15329.90177753 .00001134 00000-0 15024-3 0 9993 2 39444 097.7113 026.5928 0058577 329.4335 030.3468 14.80650355106757 EO-79 1 40025U 14033R 15330.68516329 .00001460 00000-0 16670-3 0 9998 2 40025 97.9398 231.0780 0013362 18.1858 341.9833 14.87571714 77948 XW-2A 1 40903U 15049E 15330.79179576 .00007450 00000-0 22680-3 0 9995 2 40903 97.4529 338.7120 0017757 137.0637 341.7732 15.34142562 10340 XW-2C 1 40906U 15049H 15330.77282073 .00003602 00000-0 20957-3 0 9993 2 40906 97.4548 337.3697 0017108 25.3509 60.7726 15.12565029 10248 LILACSAT-2 1 40908U 15049K 15330.80537126 .00001905 00000-0 11462-3 0 9996 2 40908 97.4608 337.3986 0017636 17.9403 106.4722 15.11902796 10243 XW-2E 1 40909U 15049L 15330.75814920 .00005594 00000-0 31937-3 0 9998 2 40909 97.4556 337.3890 0016693 28.5631 57.6971 15.13011894 10248 UO-11 1 14781U 84021B 15330.76418773 .00000499 00000-0 68427-4 0 9994 2 14781 97.7806 23.6647 0007155 258.0312 102.0100 14.82590811706115 AO-16 1 20439U 90005D 15330.80679005 .00000104 00000-0 54199-4 0 9996 2 20439 98.5552 264.7106 0011694 44.5210 8.7811 14.32589520350021 LO-19 1 20442U 90005G 15330.78060640 .00000083 00000-0 46268-4 0 9990 2 20442 98.5257 263.7466 0012443 32.3433 327.8512 14.32778419350222 AO-27 1 22825U 93061C 15330.11460467 .00000054 00000-0 38588-4 0 9994 2 22825 98.7308 280.4310 0008146 187.6477 172.4582 14.29920289156077 IO-26 1 22826U 93061D 15330.83469434 .00000074 00000-0 45810-4 0 9995 2 22826 98.7252 281.3008 0008857 177.3154 182.8077 14.30241191156330 GO-32 1 25397U 98043D 15330.87618256 .00000030 00000-0 31934-4 0 9992 2 25397 98.5415 276.3766 0001092 156.3715 203.7514 14.23571393902930 NO-44 1 26931U 01043C 15330.86517664 .00000047 00000-0 50018-4 0 9993 2 26931 67.0502 117.4454 0006802 276.9354 83.0973 14.30363600739062 SO-50 1 27607U 02058C 15330.77511795 .00000736 00000-0 12433-3 0 9993 2 27607 64.5559 62.2675 0082120 257.3284 101.8628 14.74948188695268 CO-55 1 27844U 03031E 15330.81038559 .00000195 00000-0 10822-3 0 9994 2 27844 98.6948 337.0203 0009574 184.9241 175.1844 14.21878784643545 CO-57 1 27848U 03031J 15330.54375936 .00000166 00000-0 95597-4 0 9992 2 27848 98.7046 336.7485 0009344 193.6096 292.6628 14.21515073643417 AO-51 1 28375U 04025K 15330.78336790 .00000108 00000-0 44868-4 0 9994 2 28375 98.3090 266.6773 0082216 197.7801 162.0508 14.41724564599918 CP3 1 31129U 07012N 15330.47203589 .00000529 00000-0 12295-3 0 9994 2 31129 98.0034 289.4038 0096390 167.3131 313.3653 14.56055260456738 CO-65 1 32785U 08021C 15330.56609369 .00001068 00000-0 12431-3 0 9991 2 32785 97.6293 7.9992 0011951 248.0229 268.8836 14.87224757410365 PRISM 1 33493U 09002B 15330.87977796 .00003758 00000-0 35656-3 0 9996 2 33493 98.2360 176.2042 0016398 151.5823 208.6283 14.94105024370869 SOHLA-1 1 33496U 09002E 15329.96008666 .00000295 00000-0 55858-4 0 9998 2 33496 098.2338 099.4460 0006649 021.7528 092.4426 14.71479793366523 TISAT-1 1 36799U 10035E 15330.86707947 .00002224 00000-0 24130-3 0 9996 2 36799 98.0228 73.2621 0013475 38.6529 80.5249 14.89160800291163 STUDSAT 1 36801U 10035G 15329.91157691 .00017404 00000-0 86699-3 0 9993 2 36801 098.0767 099.1033 0005575 309.8425 050.2316 15.17634309292329 ALMASAT-1 1 38078U 12006B 15329.97039759 .00034732 34843-5 54795-3 0 9993 2 38078 069.4520 189.7592 0435830 031.6341 331.0229 14.89346682199039 CUBEBUG-1 1 39153U 13018D 15330.81807480 .00001029 00000-0 14415-3 0 9992 2 39153 98.0105 54.6832 0018510 88.2165 272.1167 14.79562725139523 ESTCUBE-1 1 39161U 13021C 15330.87749814 .00000959 00000-0 16274-3 0 9993 2 39161 98.0633 52.3305 0010250 149.9795 210.1987 14.71421080137165 DUCHIFAT-1 1 40021U 14033M 15330.67130927 .00002397 00000-0 26262-3 0 9997 2 40021 97.9422 231.6893 0014056 17.8007 342.3699 14.88659439 77976 NANOSATCBR1 1 40024U 14033Q 15330.77824383 .00001834 00000-0 20489-3 0 9997 2 40024 97.9400 231.4309 0013218 17.0985 343.0674 14.88160051 77979 DTUSAT-2 1 40030U 14033W 15330.68387657 .00001491 00000-0 17164-3 0 9997 2 40030 97.9382 230.6933 0012686 12.2669 347.8853 14.87205486 77920 ANTELSAT 1 40034U 14033AA 15330.67929251 .00001493 00000-0 23373-3 0 9993 2 40034 97.9255 218.9905 0059362 320.1615 39.5238 14.73057135 77210 MET-2/21 1 22782U 93055A 15330.55381801 .00000043 00000-0 25116-4 0 9992 2 22782 82.5479 114.8360 0021616 223.4377 205.9667 13.83779674123056 OKEAN-4 1 23317U 94066A 15330.88952020 .00000839 00000-0 90743-4 0 9994 2 23317 82.5369 292.5639 0020879 146.3502 272.4008 14.86931626141470 NOAA-14 1 23455U 94089A 15330.30056383 .00000017 00000-0 31890-4 0 9992 2 23455 98.7419 48.3336 0009091 344.8749 57.1187 14.14060284 78446 NOAA-15 1 25338U 98030A 15330.55956156 .00000096 00000-0 59235-4 0 9998 2 25338 98.7788 329.3623 0011595 59.9169 300.3158 14.25680310911975 RESURS 1 25394U 98043A 15330.89252176 -.00000000 00000-0 18180-4 0 9992 2 25394 98.4880 280.2742 0001981 126.8139 299.2810 14.24462582903445 FENGYUN1 1 25730U 99025A 15330.56024456 .00000841 00000-0 46771-3 0 9997 2 25730 98.9574 295.5074 0021338 39.3824 76.4751 14.13716997851999 OKEAN-0 1 25860U 99039A 15330.53915394 .00000462 00000-0 74348-4 0 9994 2 25860 98.1169 299.0676 0001595 107.6044 5.6891 14.76209631879932 NOAA-16 1 26536U 00055A 15330.80571514 .00000048 00000-0 49321-4 0 9990 2 26536 98.9246 36.4778 0011370 129.5844 230.6333 14.13121889782625 NOAA-17 1 27453U 02032A 15330.56954461 .00000025 00000-0 28352-4 0 9991 2 27453 98.3583 308.6702 0012804 68.3335 291.9208 14.24910296697784 NOAA-18 1 28654U 05018A 15330.51920955 .00000059 00000-0 57793-4 0 9996 2 28654 99.1934 327.2057 0013641 223.3788 136.6310 14.12250631541988 NOAA-19 1 33591U 09005A 15330.51137673 .00000187 00000-0 12678-3 0 9993 2 33591 99.0117 280.9387 0015013 73.5279 286.7541 14.12007571350391 HUBBLE 1 20580U 90037B 15329.96995162 .00001463 00000-0 81606-4 0 9990 2 20580 028.4688 166.9226 0002841 170.6682 337.1192 15.07922166204168 ISS 1 25544U 98067A 15330.57124191 .00013783 00000-0 21412-3 0 9997 2 25544 51.6203 353.5939 0009977 198.2108 299.6610 15.54210600973306 CO-58 1 28895U 05043F 15330.77686351 .00000656 00000-0 13639-3 0 9991 2 28895 97.8208 150.1001 0017811 139.2536 221.0002 14.62994237537361 FALCON 1 30776U 07006E 15330.68144882 .00007819 00000-0 29201-3 0 9991 2 30776 35.4260 60.8587 0001081 240.7012 119.3603 15.26717485481131 MAST 1 31126U 07012K 15330.85464646 .00000343 00000-0 83386-4 0 9990 2 31126 97.9839 291.7053 0091369 147.8316 272.2196 14.56216440457160 CAPE1 1 31130U 07012P 15330.41101375 .00000456 00000-0 10817-3 0 9997 2 31130 98.0052 288.7686 0097073 169.7109 190.6107 14.55713782456482 COMPASS 1 32787U 08021E 15330.54375050 .00002342 00000-0 23991-3 0 9997 2 32787 97.6313 13.1098 0011806 228.9889 131.0309 14.91370069410701 AAUSAT2 1 32788U 08021F 15330.82287742 .00002489 00000-0 24765-3 0 9991 2 32788 97.6322 15.1772 0011275 223.2634 136.7701 14.92492765410852 DO-64 1 32789U 08021G 15330.82050626 .00004555 00000-0 35684-3 0 9999 2 32789 97.6301 28.5492 0011148 214.5757 237.9878 15.01446169411471 CO-66 1 32791U 08021J 15329.84086385 .00001681 00000-0 18289-3 0 9992 2 32791 97.6313 9.7760 0012440 241.1159 118.8811 14.89272766410371 RS-30 1 32953U 08025A 15330.73635513 .00000010 00000-0 -13620-7 0 9993 2 32953 82.5054 233.1480 0019705 84.3265 276.0062 12.43065376340804 METEOR-M 1 35865U 09049A 15330.76866436 -.00000020 00000-0 99213-5 0 9999 2 35865 98.4818 5.1289 0002692 29.3611 102.5822 14.22053935321317 RS-38 1 35869U 09049E 15330.74603558 .00000030 00000-0 32298-4 0 9994 2 35869 98.4734 4.6577 0004979 12.3421 347.7873 14.22318501321360 JUGNU 1 37839U 11058B 15329.29834193 .00000420 00000-0 82505-4 0 9994 2 37839 19.9622 305.7857 0019028 22.6985 111.9626 14.12506029213022 SRMSAT 1 37841U 11058D 15330.23953214 .00000365 00000-0 56003-4 0 9991 2 37841 19.9731 330.0863 0011673 312.8585 142.0124 14.10511331212850 RAX-2 1 37853U 11061D 15330.43081527 .00008181 00000-0 48736-3 0 9996 2 37853 101.7039 261.3310 0189496 321.4599 37.3204 14.97859704221373 AUBIESAT 1 37854U 11061E 15330.76810025 .00009236 00000-0 53227-3 0 9999 2 37854 101.6943 266.1219 0179836 313.3618 45.2727 15.00147548221578 HRBE 1 37855U 11061F 15330.43904148 .00009030 00000-0 50722-3 0 9993 2 37855 101.7038 263.8396 0195135 317.5974 41.0294 14.98996073221446 HORYU-2 1 38340U 12025D 15329.89715023 .00001328 00000-0 20701-3 0 9990 2 38340 98.3334 304.2084 0010838 306.7309 53.2903 14.74668648189362 RS-40 1 38735U 12041C 15330.91832405 .00000040 00000-0 21992-3 0 9998 2 38735 82.4737 318.5094 0016412 181.8973 178.2047 12.42570181151120 PROITERES 1 38756U 12047B 15330.77262828 .00000711 00000-0 11097-3 0 9997 2 38756 98.2275 72.8916 0013005 134.2052 226.0221 14.76011216172984 BEESAT-3 1 39134U 13015E 15329.95759193 .00005404 00000-0 30523-3 0 9997 2 39134 064.8732 259.2906 0020487 233.4258 126.4982 15.13984780142794 BEESAT-2 1 39136U 13015G 15329.93795819 .00004364 00000-0 26232-3 0 9998 2 39136 064.8737 263.1824 0020347 232.1832 127.7451 15.12036051142718 ZACUBE-1 1 39417U 13066B 15330.13413680 .00000924 00000-0 12529-3 0 9995 2 39417 97.7106 26.4272 0059269 329.9932 29.7888 14.80053774108580 TRITON-1 1 39427U 13066M 15330.15883843 .00000747 00000-0 12916-3 0 9993 2 39427 97.6946 11.2206 0115469 10.5253 349.8329 14.66916423107606 DELFIN3XT 1 39428U 13066N 15330.15672749 .00001266 00000-0 21527-3 0 9990 2 39428 97.6963 9.2662 0123702 16.3270 344.1865 14.65834659107467 GOMX-1 1 39430U 13066Q 15330.63319812 .00000871 00000-0 16865-3 0 9995 2 39430 97.6914 1.8847 0154021 38.1418 323.0558 14.58322595107056 LO-74 1 39440U 13066AA 15329.69080903 .00001007 00000-0 14994-3 0 9999 2 39440 97.7041 19.9603 0081204 346.6900 13.2167 14.74843829108134 PUCPSAT-1 1 39442U 13066AC 15330.18954271 .00001559 00000-0 16957-3 0 9998 2 39442 97.7230 36.4000 0031590 309.4390 50.4032 14.89135920107971 SPROUT 1 39770U 14029E 15330.40159878 .00002340 00000-0 28401-3 0 9993 2 39770 97.8745 65.0847 0010169 37.7631 322.4281 14.84479162 81694 POPSAT-HIP1 1 40028U 14033U 15330.87210303 .00001695 00000-0 19302-3 0 9990 2 40028 97.9423 231.3801 0014866 14.3762 345.7854 14.87451802 77961 EO-80 1 40032U 14033Y 15330.76790481 .00001512 00000-0 17430-3 0 9991 2 40032 97.9391 230.7886 0012585 12.1717 347.9800 14.87134842 77932 VELOX-1 1 40057U 14034E 15330.76134532 .00001667 00000-0 24806-3 0 9994 2 40057 98.2071 51.4803 0012485 79.8461 280.4121 14.76269668 75860 DAURIA DX 1 1 40071U 14037C 15330.80635359 .00000772 00000-0 10803-3 0 9999 2 40071 98.3447 48.8094 0009857 79.3024 280.9284 14.80605693 74855 UKUBE-1 1 40074U 14037F 15330.76866895 .00001697 00000-0 21785-3 0 9996 2 40074 98.3474 50.1004 0005904 84.4536 275.7329 14.82632524 74924 HODOYOSHI-1 1 40299U 14070B 15330.88938913 .00003209 00000-0 15064-3 0 9990 2 40299 97.4479 50.3980 0012394 284.3697 126.3577 15.20301606 58535 CHUBUSAT-1 1 40300U 14070C 15330.78188020 .00003625 00000-0 17719-3 0 9999 2 40300 97.4441 49.0904 0020412 289.9998 222.9153 15.18697569 58449 QSAT-EOS 1 40301U 14070D 15330.77862759 .00006648 00000-0 31789-3 0 9998 2 40301 97.4392 48.3053 0029481 290.2357 222.7580 15.18944936 58402 TSUBAME 1 40302U 14070E 15330.78855380 .00003589 00000-0 19703-3 0 9995 2 40302 97.4362 46.0592 0040791 297.0651 212.0031 15.14073908 58267 FIREBIRD FU3 1 40377U 15003B 15330.74438137 .00006293 00000-0 29978-3 0 9997 2 40377 99.0987 34.3933 0152360 80.4574 281.3831 15.09857122 45066 FIREBIRD FU4 1 40378U 15003C 15330.74166231 .00006477 00000-0 30805-3 0 9996 2 40378 99.0986 34.3982 0152645 80.4011 281.4423 15.09858196 45062 GRIFEX 1 40379U 15003D 15330.80899484 .00005263 00000-0 25821-3 0 9991 2 40379 99.0997 34.1570 0154963 82.2335 279.6451 15.08695664 45057 LAMBDA-SAT 1 40458U 98067GB 15136.30676273 .20783109 12527-4 14817-2 0 9995 2 40458 051.6075 233.7697 0010355 318.5347 043.1720 16.39926603 21161 NO-84 1 40654U 15025X 15330.23466031 .00017440 00000-0 42245-3 0 01942 2 40654 054.9966 235.0955 0225226 287.6864 069.9656 15.19119939028750 NO-83 1 40655U 15025X 15330.23821009 .00023424 00000-0 54158-3 0 02017 2 40655 054.9976 233.7987 0217610 288.2375 069.5073 15.21395223028770 DEORBITSAIL 1 40719U 15032E 15330.20828477 .00001665 00000-0 25469-3 0 9999 2 40719 98.0372 218.4132 0016783 167.2555 192.9081 14.74977695 20415 NUDT-PHONESAT 1 40900U 15049B 15330.77875325 .00008344 00000-0 45808-3 0 9995 2 40900 97.4482 337.4479 0017651 45.4343 41.4958 15.14248720 10263 XW-2D 1 40907U 15049J 15330.77491900 .00003815 00000-0 22197-3 0 9999 2 40907 97.4516 337.3370 0016659 23.7720 62.1452 15.12524277 10241 XW-2F 1 40910U 15049M 15330.77842999 .00005155 00000-0 29825-3 0 9995 2 40910 97.4551 337.3603 0017718 22.8019 62.8819 15.12552134 10136 XW-2B 1 40911U 15049N 15330.77399400 .00003545 00000-0 20646-3 0 9993 2 40911 97.4565 337.3809 0016382 23.9491 61.9961 15.12545711 10144 DCBB 1 40912U 15049P 15330.76655610 .00005857 00000-0 32187-3 0 9992 2 40912 97.4560 337.5336 0018152 21.1653 65.3062 15.14339859 10151 TW-1C 1 40926U 15051B 15330.75946196 .00014261 00000-0 46915-3 0 9994 2 40926 97.3027 5.2711 0018056 58.8666 5.9758 15.31464380 9576 TW-1A 1 40928U 15051D 15330.90568493 .00004250 00000-0 14489-3 0 9991 2 40928 97.2960 5.3533 0017262 74.2177 49.9482 15.30766027 9599 IO-86 1 40931U 15052B 15330.14146182 .00000953 00000-0 44121-4 0 9992 2 40931 5.9982 329.7832 0012772 109.5319 250.6618 14.76383535 8723 AAUSat-5 1 40948U 98067GZ 15330.48984008 .00068187 00000-0 75028-3 0 9993 2 40948 51.6401 352.6177 0004217 152.6138 207.5080 15.62504838 8096 GomX-3 1 40949U 98067HA 15330.58106651 .00047565 00000-0 56796-3 0 9993 2 40949 51.6419 352.4812 0004877 173.8184 186.2870 15.60534173 8103 LQSat 1 40958U 15057A 15330.83743030 .00000382 00000-0 67480-4 0 9996 2 40958 98.0370 43.1971 0019616 84.6530 275.6897 14.72754276 7454 AO-85 1 40967U 15058D 15327.50377813 .00001757 00000-0 19791-3 0 00493 2 40967 064.7761 152.3989 0217696 267.9966 089.6196 14.74432681006658 /EX
